Location: Newark
(42.7133°N, 87.7910°W)
Time: 13:45:41
(UTC+00:00)

Vanguard 1 - Pass Details

Date: 24 September 2019
Orbit: 653 x 3830 km, 34.3° (Epoch: 14 October)

Event Time Altitude Azimuth Distance (km) Brightness Sun altitude
Rises 03:20:18 0° 179° (S) 6,718 - -36.9°
Reaches altitude 10° 03:27:10 10° 161° (SSE) 6,226 - -37.8°
Maximum altitude 03:38:33 18° 127° (SE) 6,133 - -39.2°
Drops below altitude 10° 03:50:54 10° 95° (E) 6,924 - -40.7°
Exits shadow 03:54:05 - 88° (E) 7,234 14.2 -41.0°
Sets 03:59:04 0° 80° (E) 7,781 14.4 -41.6°
